User: anonymous   Login
Location: Unspecified
(0.0000°N, 0.0000°E)
Time: 09:28:49
(UTC+00:00)
Language:

TIGRISAT - Orbit

View from above orbital plane
View from above orbital plane
View from above satellite
View from above satellite

Ground track
Ground track

The orbit data is extracted from the following two-line orbital elements,

1 40043U 14033AK  17327.76898407  .00000236  00000-0  42442-4 0  9992
2 40043  97.8340 207.2219 0060968 139.5546 221.0219 14.74059758184346
Epoch (UTC): 23 November 2017 18:27:20
Eccentricity: 0.0060968
inclination: 97.8340°
perigee height: 605 km
apogee height: 691 km
right ascension of ascending node: 207.2219°
argument of perigee: 139.5546°
revolutions per day: 14.74059758
mean anomaly at epoch: 221.0219°
orbit number at epoch: 18434

The dashed part of the orbit path shows where the satellite is in the earth's shadow,  

DLR